Simultaneous Nadir Overpasses (SNOs) Predictions

Prediction of SNOs between GOES-16 and AQUA Satellite Orbit:

Table of predicted SNOs for the next 14.0 days since TLE Epoch: 3/15/2019
Index Date Time (GOES-16) GOES-16 Lat,Lon AQUA Lat,Lon Distance(km) Time Diff (sec)
1 03/17/2019 06:23:50 0.00, -75.20 -0.60, -72.40 318.47 80
2 03/17/2019 18:45:14 -0.00, -75.20 -0.51, -77.59 271.80 80
3 03/19/2019 18:35:44 -0.00, -75.20 0.13, -74.64 64.58 80
4 03/21/2019 18:23:34 -0.00, -75.22 0.77, -71.69 401.79 80
5 03/22/2019 06:44:50 0.00, -75.22 0.35, -76.84 184.29 80
6 03/24/2019 06:30:00 0.00, -75.25 -0.29, -73.89 153.70 80
7 03/24/2019 18:51:24 -0.00, -75.25 -0.80, -79.09 436.01 80
8 03/26/2019 06:17:50 0.00, -75.27 -0.94, -70.95 492.20 80
9 03/26/2019 18:39:13 0.00, -75.28 -0.20, -76.13 97.36 80
10 03/28/2019 18:29:43 0.00, -75.31 0.45, -73.18 241.85 80
11 03/29/2019 06:50:59 -0.00, -75.32 0.62, -78.35 343.70 80




NCC Satellite Simultaneous Nadir Overpasses (SNOs) Prediction Service
